635  
NZUS99 KDVN 230110  
HRRRRR  
HOURLY WEATHER ROUNDUP  
NATIONAL WEATHER SERVICE QUAD CITIES IA IL  
800 PM CDT THU JUN 22 2017  
 
NOTE: "FAIR" INDICATES FEW OR NO CLOUDS BELOW 12,000 FEET WITH  
NO SIGNIFICANT WEATHER AND/OR OBSTRUCTIONS TO VISIBILITY.  
------------------------------------------------------------------  
 
CITY SKY/WX TMP DP RH WIND PRES REMARKS  
BURLINGTON CLOUDY 80 73 79 S13 29.67F HX 84  
CEDAR RAPIDS CLOUDY 80 73 79 S8 29.67R HX 84  
DAVENPORT CLOUDY 81 70 69 S6 29.70R HX 84  
DUBUQUE MOCLDY 79 71 76 SW5 29.70S HX 82  
IOWA CITY CLOUDY 83 71 67 S8 29.68F HX 87  
MOLINE CLOUDY 82 70 66 S8 29.68R HX 86  
------------------------------------------------------------------  
THE STATIONS BELOW ARE NOT NWS STATIONS AND ARE NOT SUBJECT TO NWS  
QUALITY CONTROL. SOME STATIONS DO NOT REPORT WEATHER SUCH AS FOG.  
* - STATIONS THAT REPORT TMP AND DP IN WHOLE DEGREES CELSIUS, WHICH  
ARE THEN CONVERTED TO FAHRENHEIT.  
------------------------------------------------------------------  
 
CITY SKY/WX TMP DP RH WIND PRES REMARKS  
CLINTON CLOUDY 79 73 82 S6 29.70S HX 82  
FAIRFIELD * PTCLDY 82 70 65 SW7 29.69R HX 86  
FORT MADISON * CLOUDY 82 73 74 S9 29.69S HX 88  
FREEPORT PTCLDY 79 70 74 SW7 29.71F HX 81  
INDEPENDENCE * CLOUDY 77 72 83 E5 29.67F  
KEOKUK * MOCLDY 82 72 69 S9G15 29.68R HX 87  
MACOMB CLEAR 80 71 75 S13 29.72S HX 83  
MONTICELLO * CLOUDY 81 73 78 S5 29.68R HX 85  
MT PLEASANT MOCLDY 82 69 65 SW10 29.68R HX 85  
MUSCATINE * CLOUDY 82 72 69 SW5 29.69R HX 87  
SAVANNA CLOUDY 82 71 69 S9 29.68F HX 85  
STERLING/R.F. MOCLDY 81 72 74 VRB3 29.71R HX 85  
VINTON * CLEAR 81 70 69 S3 29.67S HX 84  
WASHINGTON * CLOUDY 81 72 74 S6 29.70R HX 84  
------------------------------------------------------------------  
 
 
CLICK HERE TO GO TO PREVIOUS BULLETINS.

The Nexlab IL Page
The Nexlab IA Page
The Nexlab MO Page Main Text Page